リニア彗星

C/1999 L3 ( LINEAR )

English version
Home page
Updated on May 3, 2000

---------------------------------------------------------------------

・ プロフィール

発見日 1999年 6月 9日
発見光度 18.3等
発見者 Lincoln Laboratory Near-Earth Asteroid Research project

・ 写真集

・ 軌道要素

   The following improved orbital elements by Kenji Muraoka, are
  from 105 observations 1999 June  9 to 2000 Jan. 18, perturbations
  by 9 Planets, Moon and 5 minor planets were taken into account.
   The mean residual is +/- 0.54 arc seconds.

      Epoch  =  2000 Jan  = 2451560.5
          T  =  2000 Jan.  4.90822       +/- 0.00033 (m.e.) TT
       Peri. =  353.29761                +/- 0.00039
       Node  =  140.16085                +/- 0.00045   (2000.0)
       Incl. =  166.09933                +/- 0.00008
          q  =    1.9889094              +/- 0.0000059 AU
          e  =    0.9743066              +/- 0.0000181
        1/a  =   +0.0129184              +/- 0.0000091 1/AU
        ( P  =    681 years )

・ 星図

・ 光度変化

        m1 =   6.0 + 5 logΔ +  19.0 log r  [  , 0]  (              〜2000年 1月 4日)
        m1 =  61   + 5 logΔ - 165   log r  [ 0,30]  (2000年 1月 4日〜2000年 2月 3日)
        m1 = -27   + 5 logΔ + 125   log r  [30,55]  (2000年 2月 3日〜2000年 2月28日)
        m1 =   5.5 + 5 logΔ +  25   log r  [55,  ]  (2000年 2月28日〜              )

        ※ 灰色の曲線は、m1 = 6.0 + 5 logΔ + 19.0 log r の光度曲線です。

---------------------------------------------------------------------

軌道要素は村岡健治氏の計算によるものです。
星図は StellaNavigator Ver.2.0 for Windows (アストロアーツ 編著 / アスキー出版局刊) で作成したものです。
光度グラフはComet for Windowsで作成したものです。

---------------------------------------------------------------------

Copyright(C) Seiichi Yoshida (comet@aerith.net). All rights reserved.